This is the latest recevied weather packets stored in our database for station/object W5ADC. If no packets are shown the sender has not sent any weather packets the latest 10 day(s).
| Time | Temp. | Humidity | Pressure | Rain* | Wind** | Luminosity | Snow |
|---|---|---|---|---|---|---|---|
| 1787927131 | 29.44° C | 68% | 1014.6 hPa | 0 mm | - | 304 W/m² | - |
| 1787926826 | 30° C | 69% | 1014.5 hPa | 0 mm | - | 264 W/m² | - |
| 1787926526 | 29.44° C | 69% | 1014.7 hPa | 0 mm | - | 252 W/m² | - |
| 1787926224 | 28.89° C | 70% | 1014.8 hPa | 0 mm | - | 235 W/m² | - |
| 1787925919 | 28.33° C | 72% | 1014.6 hPa | 0 mm | - | 220 W/m² | - |
| 1787925619 | 28.33° C | 72% | 1014.7 hPa | 0 mm | - | 205 W/m² | - |
| 1787925314 | 28.33° C | 72% | 1014.6 hPa | 0 mm | - | 211 W/m² | - |
| 1787925013 | 27.78° C | 73% | 1014.7 hPa | 0 mm | - | 181 W/m² | - |
| 1787924708 | 27.78° C | 74% | 1014.6 hPa | 0 mm | - | 168 W/m² | - |
| 1787924403 | 27.78° C | 74% | 1014.7 hPa | 0 mm | - | 157 W/m² | - |
| 1787924097 | 27.22° C | 76% | 1014.6 hPa | 0 mm | - | 144 W/m² | - |
| 1787923792 | 26.67° C | 78% | 1014.7 hPa | 0 mm | - | 132 W/m² | - |
| 1787923487 | 26.67° C | 78% | 1014.7 hPa | 0 mm | - | 72 W/m² | - |
| 1787923183 | 26.67° C | 78% | 1014.6 hPa | 0 mm | - | 58 W/m² | - |
| 1787922878 | 26.11° C | 79% | 1014.5 hPa | 0 mm | - | 60 W/m² | - |
| 1787922577 | 26.11° C | 79% | 1014.7 hPa | 0 mm | - | 52 W/m² | - |
| 1787922276 | 26.11° C | 80% | 1014.5 hPa | 0 mm | - | 49 W/m² | - |
| 1787921973 | 25.56° C | 80% | 1014.5 hPa | 0 mm | - | 47 W/m² | - |
| 1787921669 | 25.56° C | 81% | 1014.3 hPa | 0 mm | - | 43 W/m² | - |
| 1787921368 | 25.56° C | 81% | 1014.3 hPa | 0 mm | - | 40 W/m² | - |
| 1787921064 | 25° C | 81% | 1014.3 hPa | 0 mm | - | 36 W/m² | - |
| 1787920764 | 25° C | 82% | 1014.2 hPa | 0 mm | - | 32 W/m² | - |
| 1787920463 | 25° C | 82% | 1013.9 hPa | 0 mm | - | 28 W/m² | - |
| 1787920161 | 24.44° C | 83% | 1014.1 hPa | 0 mm | - | 24 W/m² | - |
| 1787919861 | 24.44° C | 83% | 1014.1 hPa | 0 mm | - | 20 W/m² | - |
* Rain latest hour (hover to see other rain measurements)
** Current wind speed in m/s (hover to see current wind gust speed)